Wind_Speed
16 17 17 18 18 18 17 17 17 17 17 17 17 17 17 17 17 17 16 15 15 15 15 16 16 16 16 16 17 16 17 17 18 18 18 18 17 17 17 17 16 16 16 15 15 14 14 14 14
17 17 18 18 18 18 17 17 17 17 17 18 18 18 18 18 18 18 18 17 17 16 16 16 16 17 17 17 17 17 18 19 19 19 19 19 19 19 19 19 19 18 18 18 17 16 16 15 15
17 18 18 19 18 18 18 17 17 17 17 18 19 19 19 19 19 19 19 19 18 18 17 17 18 18 17 18 18 18 19 19 19 19 19 20 20 20 20 21 21 20 20 20 19 19 18 18 18
18 18 18 18 18 18 19 19 19 18 18 19 19 20 21 21 21 21 20 20 20 19 19 18 19 19 19 18 18 19 19 20 20 20 20 20 21 21 21 22 22 22 22 22 21 21 20 20 20
19 19 19 19 18 18 19 20 20 19 19 19 20 20 20 21 22 22 22 22 21 21 21 20 20 20 20 20 19 19 19 20 21 21 21 22 22 23 23 23 23 23 23 23 23 22 22 22 22
19 20 20 19 18 19 20 20 20 20 20 20 21 21 21 21 22 23 23 24 23 23 23 23 23 22 22 22 22 21 20 21 22 22 22 22 23 24 25 25 24 24 24 24 25 24 24 24 24
19 20 20 20 19 19 20 21 21 20 21 22 22 23 23 23 23 23 24 25 25 25 25 24 24 24 24 23 22 22 22 22 23 23 23 23 23 23 24 24 25 24 24 25 25 25 25 25 25
20 20 20 20 21 21 22 22 22 22 22 23 24 24 23 24 24 24 25 25 26 26 26 25 25 24 24 24 24 24 23 23 24 24 24 24 25 24 24 24 24 25 25 25 26 26 26 27 27
20 21 21 22 22 23 24 24 24 24 24 24 25 25 24 25 25 25 25 26 26 26 26 25 25 25 25 25 25 25 25 25 25 25 25 26 26 26 26 26 26 26 26 26 27 27 28 28 28
21 22 22 23 24 24 25 25 25 25 25 25 26 26 26 26 26 26 26 27 27 27 27 26 26 26 26 26 27 27 27 27 27 26 27 27 27 27 27 27 27 27 27 27 28 29 29 30 30
22 23 22 23 24 25 25 26 26 26 26 27 27 27 27 27 27 28 28 28 28 28 28 28 28 28 28 28 28 29 29 29 28 28 28 28 28 28 28 28 28 29 29 30 30 30 30 31 31
23 23 23 24 24 25 25 26 27 27 27 28 28 29 29 29 29 29 29 30 30 30 30 30 29 29 30 30 30 30 30 30 30 30 30 30 30 30 30 30 30 30 30 31 31 31 31 32 31
25 25 25 25 26 26 27 28 28 28 28 29 30 30 30 31 31 31 31 31 31 31 31 31 32 31 31 31 31 31 31 31 31 31 31 32 32 32 32 32 32 32 31 31 32 32 32 32 33
27 27 27 27 27 28 29 29 30 28 30 30 30 30 30 31 31 32 32 32 33 33 33 33 34 34 33 33 33 33 33 33 33 32 32 32 33 33 33 33 33 33 33 32 32 32 33 33 33
28 28 28 28 29 29 30 31 30 31 31 31 31 31 31 32 32 32 33 34 34 34 35 35 35 35 35 35 35 34 34 34 34 34 34 33 33 34 33 34 34 34 34 34 33 33 33 34 34
30 30 30 29 30 31 32 31 30 32 32 32 32 32 32 33 33 33 33 34 35 35 35 35 36 36 36 37 36 36 36 35 35 35 35 35 34 35 35 35 35 35 35 36 35 35 34 34 35
31 32 32 31 32 33 34 33 31 32 33 33 33 33 33 33 33 33 34 35 35 35 36 36 36 36 37 37 37 37 37 37 37 36 36 36 36 36 36 36 36 36 36 37 37 36 36 36 36
32 32 33 33 33 35 35 35 33 33 34 34 34 34 34 34 34 34 34 35 35 35 36 36 36 36 37 38 38 38 38 38 38 38 37 37 37 38 38 37 36 37 37 37 38 38 37 38 38
33 34 34 34 35 36 36 36 35 34 34 35 35 34 34 34 34 35 35 35 35 36 36 36 36 36 36 37 38 38 38 38 38 38 38 37 37 38 39 38 38 37 38 38 38 38 38 39 39
35 35 36 36 36 37 37 36 35 34 34 35 35 35 34 34 34 35 35 35 36 36 36 36 35 35 36 36 37 38 38 39 39 38 38 38 37 37 38 38 38 38 38 37 38 38 38 39 40
37 37 37 38 38 38 39 37 34 33 34 35 35 35 34 34 34 34 35 35 36 36 36 36 36 36 36 37 37 38 38 39 39 39 38 38 38 38 38 38 38 38 38 38 38 38 39 39 40
38 37 38 38 38 38 38 39 33 33 33 34 34 34 35 35 34 34 34 34 34 35 36 36 37 37 37 37 38 38 39 39 39 39 39 39 38 38 38 39 38 38 38 38 38 38 39 39 39
37 37 37 37 38 38 36 38 34 33 33 33 33 34 34 35 34 34 34 34 35 36 36 37 37 37 37 37 38 39 39 39 40 40 40 39 39 39 39 39 38 38 38 39 39 39 39 39 40
37 37 37 38 38 38 36 38 35 32 33 33 33 34 34 34 34 34 34 35 35 36 36 37 37 37 37 37 37 38 39 39 40 40 40 40 39 39 39 38 39 39 39 40 40 40 40 40 41
36 37 37 37 38 38 36 37 35 33 33 33 33 33 33 33 34 34 34 34 35 35 36 36 37 37 37 38 37 37 39 39 39 40 40 40 40 39 39 39 39 40 41 41 41 41 41 42 43
35 36 36 37 38 38 37 37 35 33 32 32 32 32 32 32 32 33 34 34 34 35 36 36 36 37 37 37 37 38 38 39 40 40 40 40 39 39 39 40 41 41 41 41 41 41 42 42 43
34 35 35 37 38 38 37 36 35 33 32 31 32 32 32 32 33 33 33 33 34 34 35 35 36 36 36 37 37 38 38 38 39 40 40 40 40 40 40 40 41 42 41 41 40 40 41 41 43
34 34 34 34 36 37 37 35 34 33 32 32 32 32 33 33 33 33 33 34 34 35 35 35 35 35 36 37 37 38 38 38 38 38 39 39 39 40 41 41 41 42 41 41 40 40 41 42 44
33 33 34 35 36 36 37 35 33 33 32 32 32 33 34 34 34 33 33 34 34 35 36 36 35 35 35 36 36 37 37 37 37 37 38 39 39 39 40 41 41 41 41 41 41 41 42 42 43
33 33 33 35 35 36 38 36 34 34 34 33 33 34 34 34 34 33 33 33 34 34 34 35 35 35 35 35 36 36 36 36 36 37 37 38 38 38 39 40 40 40 40 41 41 42 42 42 43
Wind_Direction
246 247 247 246 246 247 248 245 246 246 247 248 248 247 248 250 251 253 254 255 256 259 261 263 261 260 261 258 255 254 254 253 253 253 251 250 250 251 251 250 249 250 250 251 253 256 257 257 258
248 247 248 247 247 247 247 247 248 249 249 248 248 249 249 251 252 253 255 256 257 260 261 262 261 260 259 257 256 257 257 255 253 253 252 251 250 250 251 250 250 250 250 251 253 256 257 258 259
251 250 250 248 247 248 247 247 248 250 250 249 249 249 249 251 253 254 256 257 258 259 262 262 261 260 259 258 257 256 256 256 254 253 252 253 253 253 252 251 251 251 252 253 253 255 256 259 260
251 251 252 253 251 250 250 250 249 252 252 252 252 251 251 252 254 255 257 258 259 260 262 262 259 259 259 259 256 255 255 255 255 254 254 254 255 256 255 253 252 253 252 253 254 255 256 258 259
251 252 254 256 254 252 252 253 253 254 254 255 255 254 255 256 256 255 256 258 260 260 260 261 260 260 261 260 259 256 255 256 257 255 254 256 257 257 256 254 253 253 253 253 253 254 256 258 259
254 253 254 255 256 254 255 256 257 257 256 256 257 257 257 259 259 257 257 258 260 261 261 262 261 261 261 261 261 261 259 258 258 259 258 259 259 258 257 255 254 255 254 253 253 254 256 257 259
256 257 256 253 256 256 256 256 257 257 257 257 258 259 259 259 259 259 259 258 259 261 262 263 262 260 260 260 260 260 260 261 261 261 260 260 261 259 257 256 255 255 255 254 254 255 257 258 258
259 259 258 256 255 256 256 256 257 257 257 258 258 259 259 259 259 259 259 259 259 260 261 262 262 259 258 259 261 262 262 263 263 263 261 260 261 260 258 257 258 257 256 255 256 258 258 258 258
263 262 259 258 258 257 257 257 257 257 258 258 259 260 260 258 258 258 259 259 260 260 261 262 262 260 259 259 259 261 262 264 265 263 262 260 260 259 259 258 259 259 258 258 257 258 259 259 258
263 263 262 261 262 261 260 260 260 260 259 259 259 260 260 259 258 258 259 259 259 261 261 261 263 261 259 259 260 260 261 263 264 262 262 261 260 258 258 259 260 261 261 261 260 260 260 261 261
264 265 266 265 264 264 263 261 261 261 260 260 260 261 261 260 259 259 259 260 260 261 261 261 261 261 260 258 259 260 261 262 263 261 260 261 260 259 259 259 261 263 264 264 263 262 260 260 262
266 266 267 266 265 264 265 264 263 263 263 261 261 261 261 261 261 260 260 260 261 261 260 260 260 260 260 259 260 261 261 262 262 262 261 260 260 260 260 260 261 263 264 265 265 264 261 260 261
266 267 267 267 265 265 266 266 265 265 263 262 261 262 262 261 261 261 260 260 260 260 259 259 259 260 260 259 260 261 261 262 262 263 262 260 260 260 261 261 261 262 263 264 266 266 264 262 261
267 268 268 268 267 267 267 267 267 266 265 264 263 263 263 262 261 261 260 259 260 260 261 260 259 259 259 259 260 260 261 262 262 262 262 261 260 259 259 260 261 262 262 263 265 266 266 263 262
267 267 268 269 268 267 268 268 268 266 265 265 264 265 265 264 263 262 260 260 260 260 260 261 261 260 259 259 259 260 261 262 263 262 262 261 260 258 258 260 260 261 262 264 265 265 266 265 263
268 268 269 270 270 269 268 268 268 267 266 266 266 266 266 265 265 263 262 261 261 261 261 261 261 260 259 259 259 260 260 261 263 263 262 261 261 260 259 260 260 261 262 263 264 265 265 266 265
268 269 270 271 271 271 270 269 269 268 267 267 266 266 266 266 266 265 263 262 262 263 262 262 262 261 259 259 259 259 260 261 262 263 262 262 262 262 262 261 262 263 263 263 264 265 265 266 266
270 270 272 272 272 271 270 269 268 268 267 267 267 267 266 266 266 264 263 262 262 262 262 263 263 262 261 259 259 259 259 260 261 262 262 263 262 263 263 263 264 264 264 264 265 266 266 267 266
272 272 273 273 272 271 271 270 269 268 266 266 266 266 266 266 265 264 263 262 262 262 261 262 262 261 261 261 260 259 259 260 261 262 262 263 263 263 264 265 264 264 264 265 265 266 267 267 268
272 273 273 273 273 272 271 270 270 269 266 265 265 265 264 264 265 264 263 262 262 262 262 262 261 261 261 262 261 260 260 260 260 261 262 263 264 264 264 265 265 265 265 265 265 266 267 268 268
271 273 273 273 273 273 272 270 268 267 265 264 264 264 264 264 265 265 264 263 263 262 262 262 262 262 262 261 261 260 260 260 260 261 262 264 264 265 265 265 265 265 265 266 266 266 268 269 269
272 273 274 274 274 273 272 272 267 265 265 264 264 264 264 264 264 264 264 264 263 263 262 261 262 263 262 262 261 261 261 261 261 261 261 263 264 265 265 265 265 265 265 266 266 267 268 269 270
273 273 273 273 273 272 270 271 268 265 265 266 265 265 264 263 263 263 263 263 263 262 262 262 262 262 262 262 262 262 261 261 261 260 260 262 263 265 265 264 264 265 266 266 267 268 269 269 270
273 273 273 272 272 271 270 270 269 267 268 268 267 266 265 263 263 262 262 262 262 263 263 263 264 263 262 262 262 262 262 262 261 261 261 261 262 264 265 264 264 265 267 267 267 268 269 269 271
272 273 273 273 272 271 271 271 271 271 270 270 269 267 265 263 262 261 262 263 263 263 264 264 265 264 263 263 263 263 263 263 263 262 261 261 262 263 264 265 265 265 266 268 268 268 269 270 271
272 272 272 273 274 274 273 273 273 272 270 270 270 269 266 263 263 263 263 264 263 263 265 266 266 266 264 263 264 264 264 264 264 263 262 261 262 264 265 265 266 266 267 268 269 269 270 271 272
271 270 270 271 273 274 274 273 272 272 271 269 269 267 266 264 264 265 265 264 264 265 265 267 267 266 265 265 265 265 265 265 265 264 262 261 262 263 265 267 267 267 267 267 269 270 271 273 274
269 270 269 269 273 274 274 273 274 273 273 271 268 266 265 264 264 264 265 265 265 266 266 266 266 266 266 266 266 266 266 266 266 265 263 262 262 264 266 267 268 267 268 268 270 271 272 274 275
268 268 266 267 269 273 274 275 275 275 274 272 269 267 265 265 265 265 264 265 266 267 266 265 265 266 267 267 266 265 266 266 266 265 264 263 264 265 266 267 268 268 269 270 271 271 272 275 277
268 267 268 269 269 272 275 275 275 274 273 272 270 267 265 264 264 265 265 266 267 268 268 267 266 267 268 267 266 266 266 266 266 267 266 265 265 266 267 267 267 269 270 270 271 273 273 275 277
Height
5806 5807 5808 5809 5811 5812 5813 5814 5815 5816 5817 5819 5819 5820 5821 5823 5824 5827 5827 5826 5827 5828 5828 5829 5829 5829 5829 5830 5830 5831 5832 5833 5834 5835 5836 5837 5838 5839 5840 5841 5842 5844 5845 5846 5847 5848 5849 5850 5852
5803 5804 5806 5807 5807 5808 5810 5811 5812 5814 5815 5816 5816 5817 5818 5819 5820 5821 5822 5823 5824 5825 5825 5826 5826 5826 5827 5827 5827 5828 5829 5829 5830 5831 5832 5833 5834 5835 5836 5838 5839 5840 5841 5843 5844 5846 5847 5848 5849
5799 5801 5803 5803 5804 5806 5808 5809 5810 5810 5812 5813 5813 5814 5815 5816 5817 5818 5819 5819 5820 5821 5822 5822 5823 5823 5823 5823 5824 5824 5824 5825 5826 5827 5828 5829 5830 5831 5833 5834 5835 5837 5838 5839 5841 5842 5843 5845 5846
5797 5798 5799 5801 5802 5803 5804 5805 5806 5807 5808 5809 5810 5811 5812 5813 5814 5815 5815 5816 5817 5818 5818 5819 5819 5819 5820 5820 5820 5820 5821 5822 5822 5823 5824 5825 5826 5827 5828 5829 5831 5832 5834 5835 5837 5838 5840 5841 5842
5793 5794 5796 5797 5798 5800 5800 5801 5802 5804 5805 5805 5806 5807 5808 5809 5810 5811 5811 5812 5813 5814 5814 5815 5815 5816 5816 5816 5816 5816 5817 5818 5818 5819 5819 5820 5821 5822 5823 5824 5826 5828 5829 5831 5832 5834 5835 5837 5838
5790 5791 5792 5793 5795 5796 5797 5797 5799 5800 5801 5802 5802 5803 5804 5805 5806 5807 5807 5808 5809 5810 5810 5810 5811 5811 5811 5811 5812 5812 5813 5813 5814 5814 5814 5816 5816 5817 5818 5819 5821 5823 5824 5826 5827 5829 5830 5832 5833
5787 5787 5787 5789 5791 5792 5793 5793 5794 5795 5796 5797 5798 5799 5800 5800 5801 5802 5802 5803 5804 5805 5805 5806 5806 5806 5807 5807 5807 5808 5808 5809 5809 5809 5810 5810 5811 5812 5813 5814 5816 5817 5819 5821 5822 5824 5825 5827 5828
5781 5783 5783 5785 5786 5787 5788 5789 5790 5791 5792 5793 5793 5794 5795 5796 5796 5796 5797 5798 5799 5800 5800 5801 5801 5801 5802 5802 5802 5803 5803 5804 5804 5804 5805 5805 5806 5807 5808 5809 5811 5812 5814 5815 5817 5818 5820 5821 5822
5777 5779 5778 5780 5781 5782 5783 5784 5785 5785 5787 5787 5788 5789 5790 5790 5791 5791 5792 5793 5794 5794 5795 5795 5795 5796 5796 5797 5797 5797 5798 5798 5799 5799 5799 5800 5800 5801 5802 5804 5805 5807 5808 5810 5811 5812 5814 5815 5816
5772 5773 5774 5775 5776 5777 5777 5778 5779 5780 5781 5782 5782 5783 5783 5784 5785 5786 5786 5787 5788 5788 5789 5789 5790 5790 5791 5791 5792 5792 5792 5793 5793 5793 5794 5794 5795 5796 5797 5798 5800 5801 5802 5804 5805 5806 5807 5809 5810
5767 5768 5769 5770 5770 5771 5771 5772 5773 5774 5775 5776 5776 5777 5777 5778 5779 5780 5780 5781 5782 5782 5783 5783 5783 5784 5784 5785 5786 5786 5786 5787 5787 5787 5788 5788 5789 5790 5791 5793 5794 5795 5796 5797 5798 5799 5801 5802 5803
5762 5763 5763 5764 5764 5765 5765 5766 5767 5768 5769 5769 5769 5770 5770 5771 5772 5773 5774 5774 5775 5775 5776 5776 5776 5777 5777 5778 5779 5779 5780 5780 5781 5781 5781 5782 5783 5784 5785 5786 5787 5788 5789 5790 5791 5793 5794 5795 5796
5756 5757 5758 5758 5758 5758 5758 5759 5759 5761 5761 5761 5762 5762 5763 5763 5764 5765 5766 5767 5767 5768 5768 5769 5769 5770 5771 5771 5772 5773 5773 5773 5774 5774 5774 5775 5776 5777 5778 5780 5781 5781 5782 5783 5784 5786 5786 5788 5789
5750 5751 5751 5751 5751 5751 5751 5752 5752 5754 5753 5753 5754 5755 5755 5756 5756 5757 5758 5758 5759 5759 5760 5761 5761 5762 5763 5764 5764 5765 5766 5766 5767 5767 5767 5768 5769 5770 5771 5772 5773 5774 5775 5776 5777 5778 5779 5780 5781
5743 5744 5744 5744 5743 5743 5744 5744 5745 5745 5745 5745 5746 5746 5747 5747 5748 5748 5749 5750 5750 5751 5752 5752 5753 5754 5755 5756 5756 5757 5758 5758 5759 5759 5760 5760 5761 5762 5764 5765 5766 5767 5768 5769 5770 5771 5772 5773 5774
5736 5736 5737 5737 5736 5736 5737 5737 5738 5736 5736 5737 5737 5738 5738 5738 5739 5739 5740 5741 5741 5742 5743 5744 5744 5745 5746 5747 5748 5748 5749 5750 5750 5751 5752 5753 5753 5754 5756 5757 5758 5759 5760 5761 5762 5763 5764 5764 5765
5728 5728 5729 5730 5728 5727 5727 5728 5729 5728 5727 5728 5728 5729 5729 5729 5730 5730 5731 5731 5732 5733 5734 5734 5735 5736 5737 5738 5739 5739 5740 5741 5742 5742 5743 5744 5745 5746 5747 5748 5749 5750 5752 5752 5753 5754 5755 5756 5757
5720 5720 5720 5721 5719 5718 5717 5718 5720 5719 5718 5719 5719 5719 5720 5720 5721 5721 5721 5722 5723 5724 5724 5725 5726 5727 5727 5728 5729 5730 5731 5732 5733 5734 5735 5736 5736 5737 5738 5739 5740 5741 5742 5743 5744 5745 5746 5746 5747
5711 5711 5711 5712 5710 5708 5708 5708 5710 5710 5709 5709 5709 5710 5711 5711 5711 5712 5712 5713 5713 5714 5715 5716 5716 5717 5718 5719 5720 5721 5722 5723 5724 5725 5725 5726 5727 5728 5729 5730 5731 5732 5733 5734 5735 5736 5736 5737 5738
5701 5701 5701 5701 5700 5698 5698 5699 5700 5700 5700 5700 5700 5701 5701 5702 5702 5702 5703 5704 5704 5705 5706 5706 5707 5708 5709 5709 5710 5711 5712 5713 5714 5715 5716 5717 5718 5719 5720 5721 5722 5722 5724 5725 5725 5726 5727 5727 5727
5692 5691 5691 5691 5690 5689 5688 5689 5691 5692 5690 5691 5691 5692 5692 5693 5693 5693 5694 5694 5695 5695 5696 5697 5698 5698 5699 5700 5700 5701 5702 5703 5704 5706 5707 5708 5709 5709 5710 5711 5712 5713 5714 5715 5716 5717 5717 5718 5718
5682 5682 5681 5680 5679 5678 5679 5677 5683 5683 5682 5682 5682 5683 5683 5683 5684 5684 5685 5685 5685 5686 5687 5687 5688 5689 5689 5690 5690 5691 5692 5693 5695 5696 5697 5698 5699 5700 5701 5702 5703 5704 5705 5706 5706 5707 5707 5708 5708
5672 5672 5671 5670 5668 5668 5669 5667 5672 5672 5673 5673 5673 5674 5674 5674 5675 5675 5675 5676 5676 5676 5677 5678 5678 5679 5679 5680 5680 5681 5682 5683 5684 5685 5687 5688 5689 5690 5691 5692 5693 5694 5695 5696 5697 5697 5698 5698 5698
5662 5662 5661 5660 5659 5659 5660 5658 5661 5663 5664 5665 5665 5664 5664 5665 5665 5665 5666 5666 5667 5667 5668 5668 5669 5669 5669 5670 5670 5671 5671 5672 5673 5675 5676 5678 5679 5680 5681 5682 5684 5684 5685 5686 5687 5687 5688 5688 5688
5653 5652 5651 5650 5649 5650 5651 5649 5653 5655 5655 5655 5655 5655 5655 5655 5656 5656 5657 5657 5658 5658 5658 5659 5659 5659 5659 5660 5660 5661 5661 5662 5663 5664 5666 5667 5669 5671 5672 5672 5674 5674 5675 5676 5677 5677 5678 5677 5677
5644 5643 5643 5642 5641 5641 5642 5641 5646 5646 5646 5646 5646 5646 5646 5646 5647 5647 5648 5648 5649 5649 5649 5649 5649 5650 5650 5650 5651 5651 5651 5652 5652 5653 5654 5656 5659 5660 5661 5662 5663 5664 5665 5665 5666 5667 5667 5667 5666
5634 5634 5635 5633 5631 5631 5632 5634 5636 5637 5637 5637 5637 5637 5637 5638 5638 5638 5639 5639 5639 5640 5640 5640 5640 5640 5640 5641 5641 5641 5641 5642 5642 5643 5644 5646 5648 5649 5651 5652 5652 5653 5654 5655 5655 5656 5656 5656 5655
5626 5626 5625 5624 5622 5621 5623 5625 5627 5628 5628 5629 5628 5628 5628 5628 5629 5629 5630 5630 5630 5630 5631 5631 5631 5631 5631 5631 5631 5632 5632 5632 5632 5633 5634 5636 5637 5639 5640 5641 5642 5642 5643 5644 5644 5645 5645 5644 5643
5618 5617 5616 5615 5614 5613 5613 5619 5619 5620 5619 5619 5620 5619 5619 5619 5620 5620 5621 5621 5621 5621 5621 5621 5622 5622 5622 5622 5622 5622 5622 5622 5623 5624 5625 5626 5627 5629 5630 5631 5631 5632 5632 5633 5633 5633 5634 5633 5632
5608 5608 5608 5608 5607 5605 5605 5611 5611 5611 5610 5610 5610 5610 5609 5610 5610 5611 5611 5612 5612 5612 5612 5612 5612 5613 5613 5612 5613 5613 5613 5613 5614 5615 5616 5617 5618 5619 5619 5620 5621 5621 5622 5622 5622 5622 5622 5621 5620